{"data":{"norad_id":68486,"intl_designator":"2026-067BY","name":"VINDLER 2.3","alt_names":[],"object_type":"PAYLOAD","status":"ACTIVE","operator":null,"country":"US","launch_date":"2026-03-30","launch_site_code":"AFWTR","launch_vehicle":null,"mission":null,"orbit_class":"UNKNOWN","rcs_meters":null,"size_class":null,"mass_kg":null,"dimensions":null,"purposes":[],"wikipedia_slug":null,"has_3d_model":false,"image_url":null,"decayed_at":null,"tle_current":{"epoch":"2026-09-20T03:13:44.090976Z","epoch_age_seconds":100446,"freshness":"FRESH","line1":"1 68486U 26067BY  26263.13453809  .00000969  00000+0  10051-3 0  9998","line2":"2 68486  97.7678 219.9860 0002352  60.3548 299.7905 14.92241189 25886","mean_motion":14.92241189,"eccentricity":0.0002352,"inclination_deg":97.7678,"raan_deg":219.986,"arg_perigee_deg":60.3548,"mean_anomaly_deg":299.7905,"bstar":0.00010051,"rev_number":2588,"period_min":96.49914575572,"perigee_km":589.30990267785,"apogee_km":592.58816074717,"semimajor_km":6969.0860317125,"source":"CELESTRAK","updated_at":"2026-09-20T09:00:24.251282Z"}}}